Regional Weather Roundup
Issued by NWS

Home | Current Version | Previous Version | Text Only | Print | Product List | Glossary On
Versions: 1 2 3 4 5 6 7 8 9 10 11 12 13 14 15 16 17 18 19 20 21 22 23 24 25 26 27 28 29 30 31 32 33 34 35 36 37 38 39 40 41 42 43 44 45 46 47 48 49 50
000
ASUS44 KFWD 231315
RWRTX
NORTH TEXAS HOURLY WEATHER ROUNDUP
NATIONAL WEATHER SERVICE FORT WORTH TX
800 AM CDT SAT JUL 23 2016

NOTE: "FAIR" INDICATES FEW OR NO CLOUDS BELOW 12,000 FEET WITH NO
SIGNIFICANT WEATHER AND/OR OBSTRUCTIONS TO VISIBILITY.

TXZ118-119-231400-
DALLAS/FORT WORTH METROPLEX

CITY           SKY/WX    TMP DP  RH WIND       PRES   REMARKS
DFW AIRPORT    MOSUNNY   84  70  62 S10       29.98R
DALLAS LOVE    MOSUNNY   84  71  65 SW6       29.98R
FTW MEACHAM    SUNNY     84  69  60 SW7       29.98R
DAL-EXECUTIVE  SUNNY     83  70  64 VRB5      29.99R
FTW-ALLIANCE   MOSUNNY   82  70  66 SW5       29.98R
FTW-NAS-JRB    SUNNY     84  68  58 S7        29.99R
FTW-SPINKS     SUNNY     81  70  69 S6        30.00R
ARLINGTON      SUNNY     80  71  74 S5        29.99R
GRAND PRAIRIE  SUNNY     81  70  69 S8        30.00R
ADDISON        SUNNY     84  70  61 S5        29.99R
MESQUITE       SUNNY     79  73  83 CALM      29.99R
LANCASTER      SUNNY     82  71  70 CALM      30.00R
$$

TXZ091>094-102>105-117-120-121-131>134-231400-
NORTH CENTRAL TEXAS

CITY           SKY/WX    TMP DP  RH WIND       PRES   REMARKS
SHRMAN/DENISON SUNNY     84  72  66 S6        30.00S
GAINESVILLE    SUNNY     79  70  73 CALM      30.00S
BOWIE          SUNNY     78  70  77 SE3       30.00S
BRIDGEPORT     SUNNY     77  71  82 CALM      30.01R
DECATUR        SUNNY     81  66  61 SW8       30.00R
DENTON         SUNNY     80  71  74 CALM      29.98R
MCKINNEY       SUNNY     82  73  74 CALM      29.99R
GREENVILLE     SUNNY     81  70  69 SW5       29.99S
ROCKWALL       SUNNY     81  72  75 S6        29.98R
TERRELL        MOSUNNY   81  73  76 SW6       30.00R
WAXAHACHIE     SUNNY     81  72  76 SW5       30.01R
CLEBURNE       SUNNY     79  73  83 S5        30.02R
GRANBURY       SUNNY     83  69  63 S5        30.01R
$$

TXZ083>090-098>101-113>116-127>130-139>142-154-155-231400-
WESTERN NORTH TEXAS

CITY           SKY/WX    TMP DP  RH WIND       PRES   REMARKS
WICHITA FALLS  SUNNY     79  67  66 S8        29.97S
WF-KICKAPOO    SUNNY     80  66  63 S10       29.99R
VERNON         SUNNY     78  61  56 S9        29.98R
ABILENE        SUNNY     79  65  62 S8        30.03R
ABILENE-DYESS  SUNNY     80  65  59 SE6       30.01R
CISCO          SUNNY     77  66  69 S5        30.04R
BRECKENRIDGE   SUNNY     82  65  57 S8        30.01S
GRAHAM         SUNNY     81  68  66 SE3       29.99R
MINERAL WELLS  SUNNY     78  69  73 SE7       30.00R
STEPHENVILLE   SUNNY     76  67  74 CALM      30.05S
COMANCHE       SUNNY     79  70  74 S6        30.03R
BROWNWOOD      SUNNY     77  68  73 S3        30.04R
COLEMAN        SUNNY     78  65  63 S5        30.04R
$$

TXZ143>147-156>162-174-175-231400-
CENTRAL TEXAS

CITY           SKY/WX    TMP DP  RH WIND       PRES   REMARKS
WACO           SUNNY     82  72  71 S7        30.00R
WACO-MCGREGOR  SUNNY     81  73  76 S5        30.00S
HILLSBORO      SUNNY     80  72  75 S6        30.01R
CORSICANA      SUNNY     82  72  71 SW7       30.01R
MEXIA          MOSUNNY   79  73  82 S7        30.00R
HEARNE         MOSUNNY   78  75  88 CALM      30.02R
CAMERON        MOSUNNY   79  75  85 SW6       30.01R
TEMPLE         SUNNY     79  73  82 S7        30.01
KILLEEN        SUNNY     78  71  77 SE6       30.01R
KILLEEN-SKYLRK   N/A     80  72  76 S5        30.02R
FORT HOOD      SUNNY     79  70  74 S6        30.00R
GATESVILLE     SUNNY     81  70  69 CALM      30.04R
HAMILTON       SUNNY     78  71  77 S3        30.04R
LAMPASAS       SUNNY     78  72  80 CALM      30.02R
$$

TXZ095>097-106>112-122>126-135>138-148>153-164>167-231400-
EAST TEXAS

CITY           SKY/WX    TMP DP  RH WIND       PRES   REMARKS
PARIS          SUNNY     81  66  61 E3        29.99F
SULPHUR SPRNGS SUNNY     83  73  70 SW7       30.01S
MOUNT PLEASANT SUNNY     80  76  85 S3        30.00S
GILMER         SUNNY     80  74  80 CALM      30.00R
MINEOLA        SUNNY     82  73  74 S3        30.01R
TYLER          SUNNY     83  72  69 SW7       30.01R
LONGVIEW       MOSUNNY   81  74  79 SW5       29.99R
MARSHALL       MOSUNNY   78  73  84 SW5       30.02R
ATHENS         SUNNY     79  75  89 CALM      30.00R
PALESTINE      MOSUNNY   79  74  85 CALM      30.01S
JACKSONVILLE   SUNNY     80  74  82 SW5       30.03S
HENDERSON      PTSUNNY   78  74  87 CALM      30.02R
CENTER         SUNNY     82  77  85 SW3       30.01S
NACOGDOCHES    SUNNY    N/A N/A N/A CALM      30.00R
LUFKIN         SUNNY     79  75  87 CALM      30.01R
$$

SUPPLEMENTAL OBSERVATIONS (CENTRAL)

CITY           SKY/WX    TMP DP  RH WIND       PRES   REMARKS
DENISON DAM      N/A     84  70  61 SW5         N/A
CADDO GRASSLND   N/A     82  72  69 S7          N/A
PAT MAYSE LAKE   N/A     82  75  78 SE5         N/A
GREENVILLE       N/A     82  72  69 SW5         N/A
CEDAR HILL       N/A     82  72  69 S5          N/A
ATHENS           N/A     82  75  78 SW2         N/A
LAKE LIMESTONE   N/A     81  75  83 SW6         N/A
MCGREGOR         N/A     81  73  78 S5          N/A
TEMPLE           N/A     81  73  78 S3          N/A
$$

SUPPLEMENTAL OBSERVATIONS (WEST)

CITY           SKY/WX    TMP DP  RH WIND       PRES   REMARKS
MILLERS CREEK    N/A     81  64  57 S8          N/A
POSSUM KINGDOM   N/A     82  68  61 S7          N/A
LBJ GRASSLAND    N/A     81  70  69 CALM        N/A
GRANBURY         N/A     82  68  61 SW6         N/A
COMANCHE         N/A     81  68  65 S6          N/A
HAMBY            N/A     81  64  57 S7          N/A
IVIE RESERVOIR   N/A     81  68  65 E5          N/A
COLORADO BEND    N/A     81  68  65 SW6         N/A
$$

SUPPLEMENTAL OBSERVATIONS (EAST)

CITY           SKY/WX    TMP DP  RH WIND       PRES   REMARKS
CLARKSVILLE      N/A     82  75  78 SE3         N/A
TEXARKANA        N/A     81  77  89 CALM        N/A
LINDEN           N/A     82  73  74 SW1         N/A
CADDO LAKE       N/A     81  75  83 S2          N/A
GILMER           N/A     82  73  74 SW3         N/A
HENDERSON        N/A     81  73  78 SW3         N/A
LUFKIN           N/A     81  77  89 MISG        N/A
N SABINE NF      N/A     79  73  83 MISG        N/A
S SABINE NF      N/A     81  77  89 S1          N/A
$$

SUPPLEMENTAL OBSERVATIONS ARE A COLLECTION OF AUTOMATED INSTRUMENTS
THAT ARE MAINTAINED BY A VARIETY OF FEDERAL AND STATE AGENCIES.
CERTAIN ELEMENTS...SUCH AS HUMIDITY VALUES AND SUSTAINED WIND
SPEEDS...MAY BE APPROXIMATED.





USA.gov is the U.S. government's official web portal to all federal, state and local government web resources and services.